7L2IWN-13 Weather Reports


time (UTC)temp
F
wind
direction
speed
knots
gust
knots
rain 1hr
in
rain 24hr
in
rain mn
in
humidity
%
barometer
mb
20260509181202 47 278 2.6 2.6 0.00 0.00 0.00 79 1017.8
20260509180003 47 237 0.9 1.7 0.00 0.00 0.00 80 1017.7
20260509174804 47 291 0.9 1.7 0.00 0.00 0.00 79 1017.3
20260509173604 46 241 2.6 4.3 0.00 0.00 0.00 80 1017.4
20260509172403 47 248 0.9 1.7 0.00 0.00 0.00 81 1017.4
20260509171203 47 305 0.9 1.7 0.00 0.00 0.00 79 1017.5
20260509170003 48 231 1.7 2.6 0.00 0.00 0.00 74 1017.2
20260509164804 48 228 2.6 2.6 0.00 0.00 0.00 77 1017.1
20260509163603 47 227 1.7 2.6 0.00 0.00 0.00 77 1017.1
20260509162403 48 276 2.6 4.3 0.00 0.00 0.00 78 1017.1
20260509161203 48 302 2.6 2.6 0.00 0.00 0.00 76 1017.2
20260509160004 48 238 2.6 4.3 0.00 0.00 0.00 73 1017.1
20260509154804 48 278 1.7 1.7 0.00 0.00 0.00 77 1017.1
20260509153603 49 249 1.7 2.6 0.00 0.00 0.00 74 1017.1
20260509152403 49 309 0.0 0.0 0.00 0.00 0.00 76 1017.0
20260509151202 49 257 0.9 2.6 0.00 0.00 0.00 73 1017.1
20260509150004 50 260 1.7 2.6 0.00 0.00 0.00 71 1017.0
20260509144804 50 254 2.6 2.6 0.00 0.00 0.00 70 1017.0
20260509143603 50 241 1.7 2.6 0.00 0.00 0.00 70 1017.0
20260509142403 50 232 0.9 1.7 0.00 0.00 0.00 71 1016.7
20260509141204 51 234 1.7 2.6 0.00 0.00 0.00 70 1016.7
20260509140003 51 257 1.7 1.7 0.00 0.00 0.00 69 1016.6
20260509134802 51 201 0.0 0.0 0.00 0.00 0.00 70 1016.4
20260509133604 52 292 0.9 1.7 0.00 0.00 0.00 68 1016.5
20260509132404 52 223 0.9 1.7 0.00 0.00 0.00 68 1016.2
20260509131818 53 287 2.6 2.6 0.00 0.00 0.00 67 1016.3
20260509131605 53 298 2.6 4.3 0.00 0.00 0.00 66 1016.2
20260509130405 53 232 0.0 0.0 0.00 0.00 0.00 65 1016.1
20260509125206 54 246 0.9 0.9 0.00 0.00 0.00 64 1015.9
20260509124006 54 281 1.7 1.7 0.00 0.00 0.00 64 1016.0
20260509122807 55 282 0.9 1.7 0.00 0.00 0.00 61 1015.7
20260509121604 56 236 1.7 2.6 0.00 0.00 0.00 60 1015.7
20260509120406 56 203 0.9 1.7 0.00 0.00 0.00 60 1015.7
20260509115207 56 302 0.9 1.7 0.00 0.00 0.00 59 1015.7
20260509114004 57 249 1.7 2.6 0.00 0.00 0.00 57 1015.3
20260509112806 58 283 2.6 4.3 0.00 0.00 0.00 55 1015.3
20260509111606 58 303 1.7 1.7 0.00 0.00 0.00 55 1015.1
20260509110404 58 241 1.7 1.7 0.00 0.00 0.00 55 1014.6
20260509105205 59 209 1.7 4.3 0.00 0.00 0.00 55 1014.6
20260509104005 60 61 0.0 0.0 0.00 0.00 0.00 52 1014.3
20260509102806 60 333 1.7 2.6 0.00 0.00 0.00 49 1014.1
20260509101604 60 333 0.0 1.7 0.00 0.00 0.00 49 1013.8
20260509100407 61 90 0.9 1.7 0.00 0.00 0.00 45 1013.3
20260509095205 62 23 0.0 1.7 0.00 0.00 0.00 43 1013.3
20260509094008 61 27 0.9 1.7 0.00 0.00 0.00 46 1013.2
20260509091606 65 82 4.3 5.2 0.00 0.00 0.00 33 1012.7
20260509090405 66 79 5.2 7.0 0.00 0.00 0.00 33 1012.4
20260509085205 66 44 5.2 7.0 0.00 0.00 0.00 33 1012.2
20260509084006 67 52 4.3 7.8 0.00 0.00 0.00 32 1012.1
20260509082804 67 63 2.6 5.2 0.00 0.00 0.00 32 1012.0
20260509081605 67 28 7.8 12.2 0.00 0.00 0.00 31 1011.7
20260509080405 68 35 7.8 13.9 0.00 0.00 0.00 32 1011.5
20260509075206 69 38 4.3 7.0 0.00 0.00 0.00 32 1011.4
20260509074005 69 63 5.2 8.7 0.00 0.00 0.00 31 1011.1
20260509072804 69 55 10.4 14.8 0.00 0.00 0.00 31 1010.9
20260509071604 70 15 7.0 10.4 0.00 0.00 0.00 30 1010.6
20260509070405 70 358 5.2 8.7 0.00 0.00 0.00 28 1010.7
20260509065207 70 11 7.8 12.2 0.00 0.00 0.00 26 1010.4
20260509064006 70 35 6.1 11.3 0.00 0.00 0.00 25 1010.3
20260509062806 71 3 11.3 17.4 0.00 0.00 0.00 26 1010.4
20260509060404 72 43 5.2 8.7 0.00 0.00 0.00 25 1010.2
20260509055205 70 314 4.3 8.7 0.00 0.00 0.00 26 1010.3
20260509054005 71 349 6.1 15.6 0.00 0.00 0.00 26 1010.4
20260509052804 70 329 10.4 14.8 0.00 0.00 0.00 27 1010.6
20260509051604 71 60 8.7 14.8 0.00 0.00 0.00 27 1010.6
20260509050407 70 358 2.6 7.8 0.00 0.00 0.00 29 1010.3
20260509045204 69 333 5.2 8.7 0.00 0.00 0.00 30 1010.5
20260509042805 69 308 10.4 18.2 0.00 0.00 0.00 29 1010.9
20260509041604 69 354 7.8 14.8 0.00 0.00 0.00 30 1010.8
20260509040406 69 333 11.3 21.7 0.00 0.00 0.00 30 1011.0
20260509035205 68 334 8.7 14.8 0.00 0.00 0.00 31 1011.1
20260509034005 68 330 14.8 22.6 0.00 0.00 0.00 31 1011.4
20260509032804 67 318 6.1 18.2 0.00 0.00 0.00 31 1011.4
20260509031604 67 270 7.8 14.8 0.00 0.00 0.00 34 1011.2
20260509030405 67 308 7.0 12.2 0.00 0.00 0.00 34 1011.0
20260509025204 68 290 7.8 12.2 0.00 0.00 0.00 34 1011.2
20260509022804 66 304 5.2 15.6 0.00 0.00 0.00 36 1011.5
20260509021605 65 338 5.2 17.4 0.00 0.00 0.00 37 1011.5
20260509020404 64 281 13.9 20.9 0.00 0.00 0.00 38 1011.7
20260509015204 65 292 17.4 20.9 0.00 0.00 0.00 38 1011.7
20260509014005 65 292 4.3 7.8 0.00 0.00 0.00 39 1011.6
20260509011605 65 352 2.6 7.8 0.00 0.00 0.00 40 1011.7
20260509010407 64 327 13.0 20.0 0.00 0.00 0.00 43 1011.6
20260509005205 64 314 19.1 27.8 0.00 0.00 0.00 42 1011.4
20260509004008 64 309 11.3 18.2 0.00 0.00 0.00 43 1011.3
20260509001607 63 283 17.4 26.9 0.00 0.00 0.00 41 1011.2
20260509000406 64 311 6.1 21.7 0.00 0.00 0.00 43 1010.7
20260508235206 64 317 15.6 31.3 0.00 0.00 0.00 42 1010.4
20260508234005 64 327 8.7 20.0 0.00 0.00 0.00 42 1010.2
20260508232806 65 235 5.2 7.8 0.00 0.00 0.00 41 1009.4
20260508231606 65 18 7.0 11.3 0.00 0.00 0.00 41 1009.1
20260508230406 65 346 7.0 14.8 0.00 0.00 0.00 40 1008.5
20260508225206 64 32 7.8 14.8 0.00 0.00 0.00 43 1008.3
20260508224007 63 71 5.2 7.0 0.00 0.00 0.00 49 1008.3
20260508222806 61 58 0.9 2.6 0.00 0.00 0.00 57 1008.3
20260508221606 60 109 0.0 0.0 0.00 0.00 0.00 63 1008.1
20260508220406 57 232 2.6 4.3 0.00 0.00 0.00 69 1007.7
20260508215207 57 227 1.7 2.6 0.00 0.00 0.00 67 1007.4
20260508214007 56 299 1.7 2.6 0.00 0.00 0.00 65 1007.1
20260508211607 57 42 0.9 1.7 0.00 0.00 0.00 70 1006.7
20260508210408 54 152 1.7 4.3 0.00 0.00 0.00 73 1006.3
20260508205206 52 56 0.0 1.7 0.00 0.00 0.00 79 1006.1
20260508204008 52 242 1.7 2.6 0.00 0.00 0.00 79 1005.8
20260508202805 54 269 2.6 6.1 0.00 0.00 0.00 69 1005.6
20260508201607 53 187 4.3 6.1 0.00 0.00 0.00 77 1005.8
20260508200406 52 353 5.2 7.0 0.00 0.00 0.00 82 1005.4
20260508195205 51 154 0.9 2.6 0.00 0.00 0.00 84 1005.3
20260508194007 51 262 0.9 1.7 0.00 0.00 0.00 87 1005.3
20260508192807 52 250 2.6 4.3 0.00 0.00 0.00 92 1005.3
20260508191607 52 232 0.9 0.9 0.00 0.00 0.00 92 1005.1
20260508190405 53 312 0.9 1.7 0.00 0.00 0.00 90 1005.1
20260508185205 52 54 0.0 0.9 0.00 0.00 0.00 93 1005.0
20260508184006 53 180 4.3 6.1 0.00 0.00 0.00 96 1004.9
20260508182806 53 298 1.7 4.3 0.00 0.00 0.00 96 1005.0